Weather reports worldwide

Advertisment
Messina, Italy (16420): temperature & dewpoint: 13.07.2018 13:00:00 - 19.07.2018 13:00:00 (CEST)Messina, Italy (16420): wind speed: 13.07.2018 13:00:00 - 19.07.2018 13:00:00 (CEST)Messina, Italy (16420): wind direction: 13.07.2018 13:00:00 - 19.07.2018 13:00:00 (CEST)Messina, Italy (16420): reduced air pressure: 13.07.2018 13:00:00 - 19.07.2018 13:00:00 (CEST)Messina, Italy (16420): visibility: 13.07.2018 13:00:00 - 19.07.2018 13:00:00 (CEST)Messina, Italy (16420): sunshine duration: 13.07.2018 13:00:00 - 19.07.2018 13:00:00 (CEST)
Date & Time tt [°C] td [°C] ff [km/h] ff [kn] dd ppp [hPa] vv [km] sd [min]
19.07.2018 13:00:00 30,0 21,9 15 8 NE 1013,5 14 60
19.07.2018 12:00:00 28,6 23,1 13 7 NE 1014,1 14 60
19.07.2018 11:00:00 28,0 23,6 22 12 ENE 1014,1 12 60
19.07.2018 10:00:00 27,4 22,6 13 7 NE 1014,2 12 60
19.07.2018 09:00:00 26,4 21,0 13 7 NE 1014,2 12 60
19.07.2018 08:00:00 25,0 20,0 9 5 NNE 1014,0 12 42
19.07.2018 07:00:00 24,2 19,9 8 4 N 1014,1 12 0
19.07.2018 06:00:00 24,0 22,3 9 5 N 1014,1 12 0
19.07.2018 05:00:00 24,0 22,2 9 5 N 1014,2 12 -
19.07.2018 04:00:00 24,2 21,3 8 4 W 1014,3 12 -
19.07.2018 03:00:00 24,0 20,5 11 6 NW 1014,4 12 -
19.07.2018 02:00:00 24,6 22,5 9 5 NW 1014,4 12 -
19.07.2018 01:00:00 24,8 22,9 4 2 N 1014,7 12 -
19.07.2018 00:00:00 25,2 23,2 5 3 NW 1014,8 12 -
18.07.2018 23:00:00 25,4 23,3 5 3 NNW 1014,7 12 -
18.07.2018 22:00:00 25,8 23,3 8 4 NNW 1014,5 12 -
18.07.2018 21:00:00 26,0 23,3 8 4 NNE 1013,8 15 -
18.07.2018 20:00:00 26,6 23,1 8 4 NNW 1013,5 20 18
18.07.2018 19:00:00 27,8 22,1 11 6 NNW 1013,3 16 60
18.07.2018 18:00:00 28,4 22,2 13 7 WNW 1013,4 20 60
18.07.2018 17:00:00 28,0 21,1 18 10 NNW 1013,6 20 60
18.07.2018 16:00:00 29,2 22,9 13 7 WNW 1014,0 20 60
18.07.2018 15:00:00 29,0 22,2 11 6 NNW 1014,1 20 60
18.07.2018 14:00:00 29,0 21,0 21 11 WNW 1014,2 20 60
18.07.2018 13:00:00 27,8 21,1 18 10 WNW 1014,2 20 60
18.07.2018 12:00:00 28,2 21,2 18 10 WNW 1014,0 16 60
18.07.2018 11:00:00 27,0 21,5 18 10 WNW 1014,0 16 60
18.07.2018 10:00:00 26,4 22,0 16 9 NW 1013,3 16 60
18.07.2018 09:00:00 26,6 22,4 13 7 NW 1013,2 14 60
18.07.2018 08:00:00 25,0 21,7 15 8 NW 1012,8 14 60
18.07.2018 07:00:00 24,2 21,9 11 6 NNW 1012,8 14 6
18.07.2018 06:00:00 24,0 21,7 11 6 NW 1012,7 14 -
18.07.2018 05:00:00 24,4 21,9 11 6 NNW 1012,7 16 -
18.07.2018 04:00:00 24,4 21,3 16 9 NW 1013,0 16 -
18.07.2018 03:00:00 24,6 21,5 15 8 NNW 1013,1 16 -
18.07.2018 02:00:00 24,6 21,5 11 6 NW 1013,1 16 -
18.07.2018 01:00:00 24,8 21,7 11 6 NNW 1012,8 16 -
18.07.2018 00:00:00 25,0 21,9 16 9 NNW 1012,8 16 -
17.07.2018 23:00:00 25,0 21,9 11 6 NW 1012,7 16 -
17.07.2018 22:00:00 25,0 21,7 13 7 NNE 1012,4 16 -
17.07.2018 21:00:00 25,2 21,7 11 6 NW 1011,9 16 -
17.07.2018 20:00:00 25,8 21,9 13 7 WNW 1011,7 20 18
17.07.2018 19:00:00 26,6 20,9 9 5 NW 1011,6 20 36
17.07.2018 18:00:00 26,6 20,2 13 7 N 1011,8 20 42
17.07.2018 17:00:00 26,6 22,2 22 12 NW 1011,3 20 48
17.07.2018 16:00:00 27,0 21,4 24 13 NW 1011,3 20 60
17.07.2018 15:00:00 28,2 20,3 22 12 NW 1011,4 20 60
17.07.2018 14:00:00 28,2 20,9 18 10 NNW 1011,4 20 60
17.07.2018 13:00:00 28,0 21,9 18 10 NNW 1011,4 16 60
17.07.2018 12:00:00 28,2 21,5 21 11 NNW 1011,4 16 60
17.07.2018 11:00:00 28,4 20,8 16 9 W 1011,3 16 60
17.07.2018 10:00:00 27,8 23,5 24 13 NW 1011,1 14 60
17.07.2018 09:00:00 27,4 21,9 16 9 NW 1011,1 14 60
17.07.2018 08:00:00 26,4 23,7 13 7 NW 1011,2 12 6
17.07.2018 07:00:00 26,6 23,9 15 8 WNW 1011,1 12 0
17.07.2018 06:00:00 27,0 17,5 13 7 NW 1010,6 12 -
17.07.2018 05:00:00 27,8 16,1 0 0 N 1010,9 12 -
17.07.2018 04:00:00 27,8 14,4 4 2 NNW 1011,2 12 -
17.07.2018 03:00:00 25,6 15,9 5 3 NW 1011,3 12 -
17.07.2018 02:00:00 26,0 16,3 4 2 ENE 1011,4 12 -
17.07.2018 01:00:00 26,0 21,4 4 2 NW 1011,5 12 -
17.07.2018 00:00:00 26,4 22,2 5 3 S 1011,3 10 -
16.07.2018 23:00:00 26,4 18,5 4 2 W 1011,6 10 -
16.07.2018 22:00:00 26,4 23,7 9 5 E 1014,6 10 -
16.07.2018 21:00:00 - - - - - - - -
16.07.2018 20:00:00 28,8 23,7 13 7 N 1014,2 18 12
16.07.2018 19:00:00 29,6 22,8 13 7 NNE 1012,9 16 60
16.07.2018 18:00:00 31,4 21,0 11 6 NE 1012,9 16 60
16.07.2018 17:00:00 30,6 23,5 15 8 NE 1013,1 14 60
16.07.2018 16:00:00 31,6 22,0 15 8 NE 1013,2 14 60
16.07.2018 15:00:00 31,4 22,4 9 5 NE 1013,8 12 60
16.07.2018 14:00:00 30,4 23,3 15 8 NE 1014,4 12 60
16.07.2018 13:00:00 29,8 22,8 15 8 ENE 1015,7 12 60
16.07.2018 12:00:00 28,4 21,7 13 7 NE 1016,1 10 60
16.07.2018 11:00:00 28,4 23,5 13 7 N 1015,1 10 60
16.07.2018 10:00:00 27,4 23,4 13 7 NW 1015,1 10 60
16.07.2018 09:00:00 27,2 22,8 11 6 NNW 1014,2 12 60
16.07.2018 08:00:00 26,4 22,7 9 5 NNE 1013,7 12 48
16.07.2018 07:00:00 26,0 24,0 5 3 NNE 1013,8 10 0
16.07.2018 06:00:00 26,0 24,2 5 3 NNE 1013,8 10 -
16.07.2018 05:00:00 26,0 23,9 11 6 N 1014,3 10 -
16.07.2018 04:00:00 26,0 23,9 8 4 NNW 1014,3 10 -
16.07.2018 03:00:00 26,2 24,1 13 7 N 1014,3 10 -
16.07.2018 02:00:00 26,6 24,3 9 5 NW 1014,3 10 -
16.07.2018 01:00:00 26,8 24,5 15 8 NW 1014,2 10 -
16.07.2018 00:00:00 26,8 24,7 11 6 WSW 1014,2 10 -
15.07.2018 23:00:00 26,8 24,3 13 7 E 1014,2 10 -
15.07.2018 22:00:00 27,0 25,0 9 5 NE 1014,1 10 -
15.07.2018 21:00:00 27,4 25,0 11 6 NE 1013,4 10 -
15.07.2018 20:00:00 27,6 24,3 5 3 NE 1013,3 10 0
15.07.2018 19:00:00 27,8 24,0 9 5 NE 1013,2 10 0
15.07.2018 18:00:00 28,8 23,2 9 5 WNW 1013,2 10 24
15.07.2018 17:00:00 29,6 23,8 11 6 NNE 1013,1 10 60
15.07.2018 16:00:00 29,2 23,2 13 7 N 1013,2 10 60
15.07.2018 15:00:00 29,4 23,4 13 7 N 1013,2 10 60
15.07.2018 14:00:00 29,6 23,6 15 8 N 1013,4 10 60
15.07.2018 13:00:00 30,2 23,1 11 6 N 1013,4 10 60
15.07.2018 12:00:00 29,6 23,1 9 5 N 1013,5 10 60
15.07.2018 11:00:00 28,6 23,3 11 6 N 1013,6 10 60
15.07.2018 10:00:00 27,8 23,6 13 7 NNW 1013,4 10 60
15.07.2018 09:00:00 27,4 23,2 9 5 NNW 1013,3 10 60
15.07.2018 08:00:00 26,8 23,5 11 6 NNE 1013,0 12 48
15.07.2018 07:00:00 26,0 23,1 9 5 NNW 1012,3 16 6
15.07.2018 06:00:00 26,0 23,3 15 8 NNW 1012,3 20 -
15.07.2018 05:00:00 26,0 23,1 11 6 NNE 1012,6 20 -
15.07.2018 04:00:00 24,2 22,6 2 1 N 1013,0 20 -
15.07.2018 03:00:00 25,0 22,3 4 2 N 1013,3 20 -
15.07.2018 02:00:00 25,2 24,0 9 5 WSW 1014,0 20 -
15.07.2018 01:00:00 26,0 24,6 11 6 SW 1014,0 20 -
15.07.2018 00:00:00 26,0 24,8 11 6 SW 1014,0 20 -
14.07.2018 23:00:00 26,0 24,0 8 4 WSW 1014,9 20 -
14.07.2018 22:00:00 26,6 24,2 9 5 SW 1014,9 20 -
14.07.2018 21:00:00 27,0 24,5 13 7 SSW 1014,9 20 -
14.07.2018 20:00:00 27,8 24,0 18 10 SSW 1015,0 20 0
14.07.2018 19:00:00 29,0 23,9 11 6 SSW 1015,0 20 60
14.07.2018 18:00:00 30,6 19,6 8 4 S 1015,0 20 60
14.07.2018 17:00:00 31,2 17,5 8 4 E 1015,1 20 60
14.07.2018 16:00:00 31,6 16,4 15 8 NE 1015,3 20 60
14.07.2018 15:00:00 31,4 19,1 15 8 NE 1016,0 20 60
14.07.2018 14:00:00 31,0 19,7 16 9 NE 1016,2 20 60
14.07.2018 13:00:00 31,0 17,7 11 6 NE 1016,3 20 60
14.07.2018 12:00:00 30,4 20,0 16 9 NE 1016,4 20 60
14.07.2018 11:00:00 30,0 18,1 13 7 NE 1016,4 20 60
14.07.2018 10:00:00 29,0 17,2 13 7 NE 1016,2 20 60
14.07.2018 09:00:00 28,4 17,0 8 4 NE 1016,2 20 60
14.07.2018 08:00:00 27,2 15,3 0 0 N 1016,2 20 60
14.07.2018 07:00:00 25,2 16,6 0 0 N 1016,0 20 12
14.07.2018 06:00:00 25,0 21,1 4 2 NNE 1016,2 20 -
14.07.2018 05:00:00 25,2 20,5 5 3 NNE 1016,2 10 -
14.07.2018 04:00:00 26,2 17,0 8 4 N 1016,2 16 -
14.07.2018 03:00:00 26,0 17,4 5 3 N 1016,2 16 -
14.07.2018 02:00:00 26,0 18,2 8 4 N 1016,2 16 -
14.07.2018 01:00:00 26,4 22,9 4 2 N 1016,2 16 -
14.07.2018 00:00:00 26,4 21,4 5 3 N 1016,3 16 -
13.07.2018 23:00:00 26,8 20,6 5 3 N 1016,2 16 -
13.07.2018 22:00:00 27,0 22,4 5 3 NE 1016,1 16 -
13.07.2018 21:00:00 27,8 22,7 4 2 NE 1015,5 20 -
13.07.2018 20:00:00 28,8 21,3 4 2 NE 1015,5 20 24
13.07.2018 19:00:00 31,0 19,7 5 3 NNE 1015,3 20 60
13.07.2018 18:00:00 31,2 18,9 9 5 NE 1015,4 20 60
13.07.2018 17:00:00 31,2 20,2 13 7 NE 1015,8 20 60
13.07.2018 16:00:00 30,6 21,7 15 8 NE 1016,2 20 60
13.07.2018 15:00:00 31,2 18,9 13 7 NNE 1016,2 20 60
13.07.2018 14:00:00 32,0 20,3 13 7 NE 1016,4 20 60
13.07.2018 13:00:00 31,6 19,9 15 8 NE 1016,5 20 60

tt = temperature
td = dewpoint
ff = wind speed
dd = wind direction
ppp = reduced air pressure
vv = visibility
sd = sunshine duration

Next stations